OneWeb SL0650

operational
NORAD ID: 55813 Int'l Des: 2023-029 Owner: ONEWEBN Country: UK Constellation: oneweb
LEOCIRCULARPOLARONEWEB_TYPE

OneWeb SL0650について

説明を読み込み中...

リアルタイム位置

3D地球を読み込み中...

次回通過

高度履歴

Altitude vs Time

uPlot chart will show altitude changes over time

軌道要素

1 55813U 23029T 25351.49650037 .00000077 00000-0 16091-3 0 9992
2 55813 87.9193 341.1333 0001919 72.2629 287.8713 13.19723982134938
Epoch: Dec 17, 2025 • Age: 14 hours

現在のステータス

高度 1191.4 km
速度 7.26 km/s
衛星直下点 -14.01°S, 142.5°W
打ち上げ日 Mar 9, 2023
運用期間 2.7 years
タイプ internet

技術仕様

分類 Payload
質量 148.00 kg
乾燥質量 140.00 kg
総質量 148.00 kg
長さ 1.30 m
直径 1.00 m
スパン 5.00 m
形状 Trapezoid+2 pan
製造者 ONEWUS
バスタイプ ARROW
フェーズステータス In Orbit
所有者/国 ONEWEBN/UK

大規模コンステレーション

Loading constellations...